• In Moldova, Republic
  • List of Countries
  • For 7 days
  • Water Temperature
  • Satellite Maps
  • Weather Map
  • Weather Widgets
  • user-avatar
    Login

    Hourly Weather Adelaide

    Today, 17 October, Tuesday

    Time Temperature Precipitation Wind Pressure Humidity
    00:00 +22°C° 0 mm 4 mps 758 mmHg 39%
    01:00 +22°C° 0 mm 4 mps 758 mmHg 41%
    02:00 +21°C° 0 mm 4 mps 758 mmHg 42%
    03:00 +21°C° 0 mm 4 mps 757 mmHg 41%
    04:00 +21°C° 0 mm 5 mps 758 mmHg 42%
    05:00 +22°C° 0 mm 5 mps 758 mmHg 42%
    06:00 +22°C° 0 mm 5 mps 758 mmHg 43%
    07:00 +24°C° 0 mm 6 mps 758 mmHg 38%
    08:00 +28°C° 0 mm 6 mps 759 mmHg 34%
    09:00 +32°C° 0 mm 7 mps 759 mmHg 26%
    10:00 +32°C° 0 mm 7 mps 758 mmHg 24%
    11:00 +33°C° 0 mm 6 mps 758 mmHg 23%
    12:00 +34°C° 0 mm 6 mps 758 mmHg 22%
    13:00 +34°C° 0 mm 5 mps 757 mmHg 23%
    14:00 +34°C° 0 mm 5 mps 757 mmHg 23%
    15:00 +34°C° 0 mm 4 mps 757 mmHg 24%
    16:00 +31°C° 0 mm 3 mps 757 mmHg 28%
    17:00 +30°C° 0 mm 3 mps 757 mmHg 32%
    18:00 +28°C° 0 mm 2 mps 757 mmHg 36%
    19:00 +27°C° 0 mm 3 mps 757 mmHg 38%
    20:00 +26°C° 0 mm 3 mps 758 mmHg 39%
    21:00 +26°C° 0 mm 4 mps 758 mmHg 40%
    22:00 +25°C° 0 mm 4 mps 758 mmHg 43%
    23:00 +25°C° 0 mm 4 mps 758 mmHg 45%

    Tomorrow, 18 October, Wednesday

    Time Temperature Precipitation Wind Pressure Humidity
    00:00 +23°C° 0 mm 5 mps 758 mmHg 47%
    01:00 +23°C° 0 mm 5 mps 757 mmHg 48%
    02:00 +23°C° 0 mm 5 mps 757 mmHg 48%
    03:00 +23°C° 0 mm 5 mps 757 mmHg 49%
    04:00 +23°C° 0 mm 5 mps 757 mmHg 49%
    05:00 +25°C° 0 mm 5 mps 757 mmHg 49%
    06:00 +24°C° 0 mm 6 mps 757 mmHg 50%
    07:00 +27°C° 0 mm 6 mps 758 mmHg 45%
    08:00 +29°C° 0 mm 7 mps 758 mmHg 41%
    09:00 +30°C° 0 mm 7 mps 758 mmHg 36%
    10:00 +32°C° 0 mm 7 mps 757 mmHg 34%
    11:00 +33°C° 0 mm 7 mps 757 mmHg 32%
    12:00 +34°C° 0 mm 6 mps 757 mmHg 29%
    13:00 +34°C° 0 mm 6 mps 756 mmHg 31%
    14:00 +33°C° 0 mm 5 mps 756 mmHg 33%
    15:00 +33°C° 0 mm 5 mps 755 mmHg 34%
    16:00 +30°C° 0.3 mm 4 mps 755 mmHg 42%
    17:00 +28°C° 0.3 mm 3 mps 756 mmHg 50%
    18:00 +26°C° 0.3 mm 3 mps 756 mmHg 58%
    19:00 +25°C° 0.1 mm 3 mps 756 mmHg 62%
    20:00 +24°C° 0.1 mm 3 mps 757 mmHg 67%
    21:00 +22°C° 0.1 mm 3 mps 757 mmHg 71%
    22:00 +21°C° 0.5 mm 3 mps 757 mmHg 75%
    23:00 +20°C° 0.5 mm 2 mps 757 mmHg 79%

    Day after tomorrow, 19 October, Thursday

    Time Temperature Precipitation Wind Pressure Humidity
    00:00 +20°C° 0.5 mm 2 mps 758 mmHg 83%
    01:00 +20°C° 0.1 mm 2 mps 758 mmHg 84%
    02:00 +20°C° 0.1 mm 2 mps 758 mmHg 85%
    03:00 +19°C° 0.1 mm 2 mps 758 mmHg 86%
    04:00 +19°C° 0 mm 2 mps 759 mmHg 87%
    05:00 +19°C° 0 mm 3 mps 760 mmHg 89%
    06:00 +19°C° 0 mm 4 mps 760 mmHg 90%
    07:00 +19°C° 0 mm 5 mps 761 mmHg 85%
    08:00 +19°C° 0 mm 5 mps 762 mmHg 79%
    09:00 +19°C° 0 mm 6 mps 762 mmHg 73%
    10:00 +20°C° 0 mm 6 mps 763 mmHg 67%
    11:00 +21°C° 0 mm 6 mps 763 mmHg 61%
    12:00 +21°C° 0 mm 6 mps 763 mmHg 54%
    13:00 +21°C° 0 mm 6 mps 763 mmHg 52%
    14:00 +21°C° 0 mm 6 mps 763 mmHg 50%
    15:00 +21°C° 0 mm 6 mps 763 mmHg 47%
    16:00 +19°C° 0 mm 6 mps 764 mmHg 53%
    17:00 +16°C° 0 mm 5 mps 765 mmHg 58%
    18:00 +15°C° 0 mm 5 mps 765 mmHg 63%
    19:00 +14°C° 0 mm 5 mps 766 mmHg 68%
    20:00 +13°C° 0 mm 5 mps 767 mmHg 73%
    21:00 +12°C° 0 mm 4 mps 767 mmHg 77%
    22:00 +12°C° 0 mm 4 mps 767 mmHg 79%
    23:00 +12°C° 0 mm 4 mps 768 mmHg 81%

    20 October, Friday

    Time Temperature Precipitation Wind Pressure Humidity
    00:00 +11°C° 0 mm 4 mps 768 mmHg 82%
    01:00 +11°C° 0 mm 4 mps 768 mmHg 82%
    02:00 +11°C° 0 mm 4 mps 767 mmHg 81%
    03:00 +11°C° 0 mm 4 mps 767 mmHg 81%
    04:00 +12°C° 0 mm 4 mps 768 mmHg 78%
    05:00 +12°C° 0 mm 4 mps 768 mmHg 76%
    06:00 +12°C° 0 mm 5 mps 769 mmHg 74%
    07:00 +13°C° 0 mm 5 mps 769 mmHg 66%
    08:00 +15°C° 0 mm 5 mps 769 mmHg 59%
    09:00 +16°C° 0 mm 5 mps 769 mmHg 51%
    10:00 +17°C° 0 mm 6 mps 769 mmHg 48%
    11:00 +19°C° 0 mm 6 mps 769 mmHg 46%
    12:00 +20°C° 0 mm 6 mps 768 mmHg 43%
    13:00 +18°C° 0 mm 7 mps 768 mmHg 44%
    14:00 +18°C° 0 mm 7 mps 768 mmHg 46%
    15:00 +18°C° 0 mm 7 mps 767 mmHg 47%
    16:00 +16°C° 0 mm 7 mps 768 mmHg 54%
    17:00 +14°C° 0 mm 7 mps 768 mmHg 61%
    18:00 +12°C° 0 mm 7 mps 769 mmHg 68%
    19:00 +11°C° 0 mm 6 mps 769 mmHg 72%
    20:00 +10°C° 0 mm 6 mps 769 mmHg 77%
    21:00 +9°C° 0 mm 5 mps 769 mmHg 82%
    22:00 +9°C° 0 mm 5 mps 769 mmHg 83%
    23:00 +9°C° 0 mm 5 mps 769 mmHg 85%

    21 October, Saturday

    Time Temperature Precipitation Wind Pressure Humidity
    00:00 +10°C° 0 mm 4 mps 769 mmHg 86%
    01:00 +8°C° 0 mm 4 mps 769 mmHg 86%
    02:00 +8°C° 0 mm 4 mps 768 mmHg 87%
    03:00 +8°C° 0 mm 4 mps 768 mmHg 87%
    04:00 +8°C° 0 mm 4 mps 768 mmHg 86%
    05:00 +8°C° 0 mm 4 mps 768 mmHg 84%
    06:00 +10°C° 0 mm 4 mps 769 mmHg 82%
    07:00 +12°C° 0 mm 4 mps 769 mmHg 73%
    08:00 +14°C° 0 mm 4 mps 768 mmHg 64%
    09:00 +17°C° 0 mm 4 mps 768 mmHg 54%
    10:00 +17°C° 0 mm 5 mps 768 mmHg 51%
    11:00 +19°C° 0 mm 5 mps 767 mmHg 49%
    12:00 +20°C° 0 mm 5 mps 767 mmHg 46%
    13:00 +19°C° 0 mm 6 mps 766 mmHg 48%
    14:00 +19°C° 0 mm 6 mps 766 mmHg 50%
    15:00 +18°C° 0 mm 7 mps 765 mmHg 52%
    16:00 +16°C° 0 mm 7 mps 765 mmHg 58%
    17:00 +14°C° 0 mm 6 mps 765 mmHg 64%
    18:00 +13°C° 0 mm 6 mps 766 mmHg 70%
    19:00 +12°C° 0 mm 5 mps 766 mmHg 75%
    20:00 +10°C° 0 mm 5 mps 766 mmHg 80%
    21:00 +10°C° 0 mm 4 mps 766 mmHg 84%
    22:00 +10°C° 0 mm 4 mps 765 mmHg 85%
    23:00 +10°C° 0 mm 4 mps 765 mmHg 85%

    22 October, Sunday

    Time Temperature Precipitation Wind Pressure Humidity
    00:00 +10°C° 0 mm 3 mps 765 mmHg 85%
    01:00 +10°C° 0 mm 3 mps 764 mmHg 85%
    02:00 +10°C° 0 mm 3 mps 764 mmHg 84%
    03:00 +10°C° 0 mm 3 mps 764 mmHg 83%
    04:00 +10°C° 0 mm 3 mps 764 mmHg 82%
    05:00 +10°C° 0 mm 3 mps 764 mmHg 80%
    06:00 +12°C° 0 mm 2 mps 764 mmHg 79%
    07:00 +12°C° 0 mm 3 mps 764 mmHg 71%
    08:00 +14°C° 0 mm 3 mps 764 mmHg 64%
    09:00 +17°C° 0 mm 4 mps 764 mmHg 56%
    10:00 +17°C° 0 mm 4 mps 763 mmHg 54%
    11:00 +18°C° 0 mm 4 mps 763 mmHg 53%
    12:00 +19°C° 0 mm 5 mps 763 mmHg 51%
    13:00 +19°C° 0 mm 5 mps 762 mmHg 51%
    14:00 +19°C° 0 mm 5 mps 761 mmHg 51%
    15:00 +19°C° 0 mm 5 mps 761 mmHg 52%
    16:00 +16°C° 0 mm 5 mps 761 mmHg 58%
    17:00 +15°C° 0 mm 5 mps 761 mmHg 65%
    18:00 +14°C° 0 mm 5 mps 761 mmHg 72%
    19:00 +13°C° 0 mm 4 mps 762 mmHg 76%
    20:00 +12°C° 0 mm 4 mps 762 mmHg 80%
    21:00 +11°C° 0 mm 3 mps 762 mmHg 84%
    22:00 +11°C° 0 mm 3 mps 762 mmHg 85%
    23:00 +11°C° 0 mm 3 mps 761 mmHg 86%
    Show more